Preview of NWS' New Version of Forecast
This preview is not operational and should not be used for support decisions.

Regional Weather Roundup (RWR)

Issued by National Weather Service (NWS)

                            
000
ASPQ40 PGUM 220210
RWRPQ 
WEATHER ROUNDUP FOR THE MARIANAS AND MICRONESIA
NATIONAL WEATHER SERVICE TIYAN GU
1200 PM CHST THU AUG 22 2019

GUZ001>004-220300-
MARIANA ISLANDS-
  
CITY           SKY/WX    TMP DP  RH WIND       PRES   REMARKS
GUAM AIRPORT   PTSUNNY   88  77  70 N14       29.86F HX 100           
ANDERSEN AFB   DRIZZLE   84  77  79 E8        29.87F HX  94           
ROTA AIRPORT   PTSUNNY   84  73  70 NE12      29.84F HX  91           
TINIAN AP      MOSUNNY   88  77  70 E17       29.84F HX 100           
SAIPAN AP      SUNNY     91  77  62 NE14      29.85F HX 105           

$$

PMZ161-220300-
REPUBLIC OF PALAU-
  
CITY           SKY/WX    TMP DP  RH WIND       PRES   REMARKS
KOROR AP       PTSUNNY   86  79  79 SW10      29.82F HX  99           
KOROR WSO      NOT AVBL                                               

$$

PMZ171>174-220300-
FEDERATED STATES OF MICRONESIA-
  
CITY           SKY/WX    TMP DP  RH WIND       PRES   REMARKS
YAP AIRPORT    PTSUNNY   88  77  70 VRB3      29.85F HX 100           
CHUUK AP       CLOUDY    88  82  84 S10       29.76F HX 108           
POHNPEI AP     PTSUNNY   88  75  66 E6        29.77F HX  97           
POHNPEI WSO    CLOUDY    86  77  74 SE6       29.81S HX  97           
KOSRAE AP      NOT AVBL                                               

$$

PMZ181-220300-
REPUBLIC OF THE MARSHALL ISLANDS-
  
CITY           SKY/WX    TMP DP  RH WIND       PRES   REMARKS
KWAJALEIN AP   SUNNY     81  79  94 E9        29.80F                  
MAJURO AP      NOT AVBL                                               
MAJURO WSO     PTSUNNY   86  77  74 SE7       29.76F HX  97           

$$